Weather observations for the past three days for
Pawtucket, North Central State Airport
| Date | Time (edt) | Wind (mph) | Vis. (mi.) | Weather | Sky Cond. | Temperature (ºF) | Relative Humidity | Wind Chill (°F) | Heat Index (°F) | Pressure | Precipitation (in) | ||||||
|---|---|---|---|---|---|---|---|---|---|---|---|---|---|---|---|---|---|
| Air | Dwpt | 6 hour | altimeter (in) | sea level (mb) | 1 hr | 3 hr | 6 hr | ||||||||||
| Max. | Min. | ||||||||||||||||
| 08 | 18:56 | W 14 G 20 | 10.00 | Fair | CLR | 55 | 30.9 | 40% | 29.84 | 1010.7 | |||||||
| 08 | 17:56 | NW 14 G 18 | 10.00 | A Few Clouds | FEW055 | 55 | 33.1 | 44% | 29.84 | 1010.5 | |||||||
| 08 | 16:56 | W 14 G 21 | 10.00 | Fair | CLR | 55.9 | 35.1 | 46% | 29.83 | 1010.3 | |||||||
| 08 | 15:56 | NW 10 G 21 | 10.00 | Partly Cloudy | SCT060 | 55 | 34 | 45% | 29.83 | 1010.1 | |||||||
| 08 | 14:56 | W 14 G 21 | 10.00 | Partly Cloudy | FEW060 SCT075 | 57.9 | 30 | 35% | 29.81 | 1009.5 | |||||||
| 08 | 13:56 | W 12 | 10.00 | Partly Cloudy | SCT070 | 59 | 28.9 | 62.1 | 45 | 32% | 29.8 | 1009.0 | |||||
| 08 | 12:56 | W 13 G 18 | 10.00 | Partly Cloudy | SCT070 | 61 | 30 | 31% | 29.81 | 1009.4 | |||||||
| 08 | 11:56 | W 10 G 18 | 10.00 | Partly Cloudy | SCT065 | 57.9 | 30 | 35% | 29.82 | 1009.7 | |||||||
| 08 | 10:56 | Vrbl 7 G 20 | 10.00 | A Few Clouds | FEW060 | 57 | 28.9 | 34% | 29.83 | 1010.2 | |||||||
| 08 | 09:56 | NW 7 G 17 | 10.00 | Fair | CLR | 55.9 | 28.9 | 36% | 29.84 | 1010.7 | |||||||
| 08 | 08:56 | NW 9 | 10.00 | Fair | CLR | 52 | 27 | 38% | 29.85 | 1010.8 | |||||||
| 08 | 07:56 | W 7 | 10.00 | Partly Cloudy | SCT100 | 46 | 28.9 | 46 | 39.9 | 51% | 43 | 29.85 | 1011.0 | ||||
| 08 | 06:56 | SW 3 | 10.00 | Overcast | OVC100 | 44.1 | 30 | 58% | 29.84 | 1010.7 | |||||||
| 08 | 05:56 | W 6 | 10.00 | Partly Cloudy | FEW090 SCT110 | 42.1 | 28 | 58% | 39 | 29.82 | 1010.1 | ||||||
| 08 | 04:56 | W 7 | 10.00 | Mostly Cloudy | BKN110 | 43 | 28 | 56% | 39 | 29.81 | 1009.5 | ||||||
| 08 | 03:56 | W 6 | 10.00 | Fair | CLR | 41 | 28.9 | 62% | 38 | 29.8 | 1009.2 | ||||||
| 08 | 02:56 | W 3 | 10.00 | Fair | CLR | 43 | 27 | 53% | 29.78 | 1008.3 | |||||||
| 08 | 01:56 | NW 7 | 10.00 | Fair | CLR | 45 | 27 | 54 | 45 | 49% | 42 | 29.77 | 1008.1 | ||||
| 08 | 00:56 | NW 7 | 10.00 | Fair | CLR | 46.9 | 27 | 46% | 44 | 29.78 | 1008.5 | ||||||
| 07 | 23:56 | NW 6 | 10.00 | Fair | CLR | 48 | 27 | 44% | 46 | 29.79 | 1008.7 | ||||||
| 07 | 22:56 | W 6 | 10.00 | Fair | CLR | 48.9 | 26.1 | 41% | 47 | 29.79 | 1008.9 | ||||||
| 07 | 21:56 | W 6 | 10.00 | Fair | CLR | 50 | 26.1 | 39% | 48 | 29.79 | 1009.0 | ||||||
| 07 | 20:56 | Vrbl 7 | 10.00 | Fair | CLR | 52 | 26.1 | 37% | 29.78 | 1008.4 | |||||||
| 07 | 19:56 | NW 10 | 10.00 | Fair | CLR | 54 | 26.1 | 63 | 54 | 34% | 29.75 | 1007.6 | |||||
| 07 | 18:56 | W 14 G 18 | 10.00 | Fair | CLR | 57.9 | 27 | 31% | 29.74 | 1007.0 | |||||||
| 07 | 17:56 | NW 13 G 16 | 10.00 | Fair | CLR | 60.1 | 28 | 30% | 29.72 | 1006.5 | |||||||
| 07 | 16:56 | NW 12 G 22 | 10.00 | Fair | CLR | 62.1 | 28 | 28% | 29.71 | 1005.9 | |||||||
| 07 | 15:56 | NW 13 G 20 | 10.00 | Fair | CLR | 62.1 | 28 | 28% | 29.7 | 1005.8 | |||||||
| 07 | 14:56 | W 14 G 25 | 10.00 | Fair | CLR | 62.1 | 27 | 26% | 29.72 | 1006.3 | |||||||
| 07 | 13:56 | NW 9 G 16 | 10.00 | Fair | CLR | 62.1 | 32 | 63 | 48 | 32% | 29.74 | 1006.8 | |||||
| 07 | 12:56 | W 15 G 21 | 10.00 | Fair | CLR | 61 | 30.9 | 32% | 29.75 | 1007.3 | |||||||
| 07 | 11:56 | N 12 G 21 | 10.00 | Fair | CLR | 57.9 | 36 | 44% | 29.76 | 1007.7 | |||||||
| 07 | 10:56 | NW 9 G 18 | 10.00 | Partly Cloudy | SCT035 | 57.9 | 44.1 | 60% | 29.78 | 1008.1 | |||||||
| 07 | 09:56 | W 8 | 10.00 | Partly Cloudy | SCT022 | 55 | 46.9 | 74% | 29.78 | 1008.5 | |||||||
| 07 | 08:56 | NW 9 | 10.00 | Mostly Cloudy | FEW010 BKN090 | 51.1 | 51.1 | 100% | 29.78 | 1008.6 | |||||||
| 07 | 07:56 | Vrbl 5 | 10.00 | Overcast | OVC090 | 48.2 | 0 | 55.9 | 48 | 0% | 47 | 29.79 | 1008.9 | 0.01 | 0.23 | ||
| 07 | 06:56 | NW 6 | 10.00 | Rain | BKN065 OVC080 | 48.2 | 0 | 0% | 46 | 29.77 | 1008.2 | 0.06 | |||||
| 07 | 05:56 | NW 5 | 10.00 | Light Rain | FEW060 OVC075 | 48.2 | 0 | 0% | 47 | 29.77 | 1008.2 | 0.01 | |||||
| 07 | 04:56 | Vrbl 7 | 10.00 | Light Rain | FEW044 OVC090 | 48.2 | 0 | 0% | 46 | 29.76 | 1007.6 | 0.03 | 0.15 | ||||
| 07 | 03:56 | N 9 | 10.00 | Heavy Rain | FEW028 BKN046 OVC055 | 48.9 | 48.9 | 100% | 45 | 29.74 | 1007.1 | 0.12 | |||||
| 07 | 02:56 | N 7 | 10.00 | Overcast | SCT011 OVC030 | 54 | 54 | 100% | 29.72 | 1006.3 | |||||||
| 07 | 01:56 | NW 5 | 10.00 | Overcast | BKN009 OVC023 | 55.9 | 55.9 | 57.9 | 55.9 | 100% | 29.73 | 1006.7 | |||||
| 07 | 00:56 | W 7 | 10.00 | Overcast | SCT016 OVC021 | 57 | 57 | 100% | 29.75 | 1007.2 | |||||||
| 06 | 23:56 | W 6 | 6.00 | Overcast with Haze | OVC007 | 57.2 | 0 | 0% | 29.74 | 1007.0 | |||||||
| 06 | 22:56 | Vrbl 6 | 5.00 | Overcast with Haze | OVC005 | 57.2 | 0 | 0% | 29.74 | 1006.9 | |||||||
| 06 | 21:56 | Vrbl 6 | 5.00 | Overcast with Haze | OVC003 | 57.2 | 0 | 0% | 29.74 | 1007.1 | |||||||
| 06 | 20:56 | Vrbl 5 | 5.00 | Overcast with Haze | OVC003 | 55.4 | 0 | 0% | 29.75 | 1007.5 | |||||||
| 06 | 19:56 | Vrbl 7 | 9.00 | Overcast | OVC003 | 55.4 | 0 | 63 | 55.9 | 0% | 29.75 | 1007.3 | 0.01 | 0.04 | |||
| 06 | 18:56 | Vrbl 7 | 10.00 | Light Rain | OVC007 | 55.4 | 0 | 0% | 29.75 | 1007.2 | 0.01 | ||||||
| 06 | 17:56 | Vrbl 6 | 3.00 | Light Rain | OVC007 | 57.2 | 0 | 0% | 29.75 | 1007.5 | |||||||
| 06 | 16:56 | Vrbl 6 G 18 | 10.00 | Overcast | OVC011 | 59 | 59 | 100% | 29.77 | 1007.8 | 0.02 | ||||||
| 06 | 15:56 | SW 12 G 17 | 10.00 | Light Rain | BKN013 BKN028 OVC050 | 57.9 | 57.9 | 100% | 29.78 | 1008.2 | 0.02 | ||||||
| 06 | 14:56 | Vrbl 6 | 10.00 | Light Rain | FEW026 SCT046 | 63 | 55 | 76% | 29.79 | 1008.6 | |||||||
| 06 | 13:56 | SW 9 | 10.00 | Fair | CLR | 66 | 55 | 71.1 | 61 | 68% | 29.8 | 1008.9 | |||||
| 06 | 12:56 | Vrbl 6 G 25 | 10.00 | Fair | CLR | 69.1 | 54 | 59% | 29.81 | 1009.3 | |||||||
| 06 | 11:56 | Vrbl 7 | 10.00 | Fair | CLR | 70 | 55 | 59% | 29.83 | 1010.0 | |||||||
| 06 | 10:56 | SW 8 | 10.00 | Fair | CLR | 69.1 | 55 | 61% | 29.85 | 1010.5 | |||||||
| 06 | 09:56 | SW 12 G 20 | 10.00 | Fair | CLR | 68 | 54 | 61% | 29.84 | 1010.4 | |||||||
| 06 | 08:56 | SW 13 G 20 | 10.00 | Fair | CLR | 64.9 | 55 | 70% | 29.86 | 1011.0 | |||||||
| 06 | 07:56 | SW 9 G 20 | 10.00 | A Few Clouds | FEW017 | 61 | 55.9 | 61 | 57 | 84% | 29.87 | 1011.3 | |||||
| 06 | 06:56 | Vrbl 7 | 10.00 | Fair | CLR | 57.9 | 55.9 | 93% | 29.87 | 1011.4 | |||||||
| 06 | 05:56 | Vrbl 7 | 10.00 | Fair | CLR | 57 | 55.9 | 96% | 29.86 | 1011.2 | |||||||
| 06 | 04:56 | Vrbl 7 G 18 | 10.00 | Fair | CLR | 57.9 | 55 | 90% | 29.86 | 1011.0 | |||||||
| 06 | 03:56 | SW 12 G 24 | 10.00 | Fair | CLR | 59 | 55 | 87% | 29.87 | 1011.2 | |||||||
| 06 | 02:56 | Vrbl 6 G 22 | 10.00 | Fair | CLR | 60.1 | 54 | 80% | 29.86 | 1010.9 | |||||||
| 06 | 01:56 | SW 8 G 18 | 10.00 | Fair | CLR | 60.1 | 54 | 62.1 | 60.1 | 80% | 29.86 | 1010.9 | |||||
| 06 | 00:56 | SW 12 G 26 | 10.00 | Fair | CLR | 61 | 53.1 | 75% | 29.88 | 1011.4 | |||||||
| 05 | 23:56 | Vrbl 7 G 24 | 10.00 | Fair | CLR | 62.1 | 51.1 | 67% | 29.88 | 1011.5 | |||||||
| 05 | 22:56 | SW 9 G 18 | 10.00 | Fair | CLR | 62.1 | 50 | 65% | 29.87 | 1011.4 | |||||||
| 05 | 21:56 | SW 13 G 25 | 10.00 | Fair | CLR | 62.1 | 50 | 65% | 29.87 | 1011.2 | |||||||
| 05 | 20:56 | SW 9 G 20 | 10.00 | Fair | CLR | 61 | 50 | 67% | 29.86 | 1011.1 | |||||||
| 05 | 19:56 | SW 9 G 16 | 10.00 | Fair | CLR | 62.1 | 50 | 80.1 | 62.1 | 65% | 29.84 | 1010.4 | |||||
| Date | Time (edt) | Wind (mph) | Vis. (mi.) | Weather | Sky Cond. | Air | Dwpt | Max. | Min. | Relative Humidity | Wind Chill (°F) | Heat Index (°F) | altimeter (in) | sea level (mb) | 1 hr | 3 hr | 6 hr |
| 6 hour | |||||||||||||||||
| Temperature (ºF) | Pressure | Precipitation (in) | |||||||||||||||